Hourly Data Report for January 29, 2019

TORONTO CITY
ONTARIO
Current Station Operator: ECCC - MSC

43°40'00.000" N
79°24'00.000" W
112.50 m
6158355
71508
XTO

Download Data

Hourly Data (January 2019)
Hourly Data Report for January 29, 2019
TIME
LST
Temp Definition
°C
Dew Point Definition
°C
Rel Hum Definition
%
Precip. Amount Definition
mm

Wind Dir Definition
10's deg

Wind Spd Definition
km/h
Visibility Definition
km
Stn Press Definition
kPa
Hmdx Definition


Wind Chill Definition


Weather Definition


00:00 -3.5 -4.3 95 1.2 LegendMM LegendMM   98.99     LegendNANA
01:00 -3.5 -4.3 95 1.0 LegendMM LegendMM   98.89     LegendNANA
02:00 -2.8 -3.4 95 1.4 LegendMM LegendMM   98.82     LegendNANA
03:00 -0.7 -1.2 96 1.3 LegendMM LegendMM   98.78     LegendNANA
04:00 0.6 0.1 96 0.0 LegendMM LegendMM   98.72     LegendNANA
05:00 -0.8 -2.7 87 0.2 LegendMM LegendMM   98.75     LegendNANA
06:00 -2.4 -5.0 82 0.2 LegendMM LegendMM   98.87     LegendNANA
07:00 -3.1 -6.5 77 0.0 LegendMM LegendMM   98.97     LegendNANA
08:00 -4.4 -8.5 73 0.0 LegendMM LegendMM   99.12     LegendNANA
09:00 -5.6 -10.7 67 0.0 LegendMM LegendMM   99.28     LegendNANA
10:00 -5.6 -11.1 65 0.0 LegendMM LegendMM   99.36     LegendNANA
11:00 -5.7 -10.7 68 0.0 LegendMM LegendMM   99.41     LegendNANA
12:00 -4.9 -12.5 55 0.0 LegendMM LegendMM   99.39     LegendNANA
13:00 -5.3 -14.0 50 0.0 LegendMM LegendMM   99.38     LegendNANA
14:00 -5.0 -14.9 46 0.0 LegendMM LegendMM   99.33     LegendNANA
15:00 -5.5 -14.9 47 0.0 LegendMM LegendMM   99.32     LegendNANA
16:00 -5.6 -11.9 61 0.0 LegendMM LegendMM   99.33     LegendNANA
17:00 -6.3 -12.4 62 0.0 LegendMM LegendMM   99.34     LegendNANA
18:00 -6.9 -11.8 68 0.0 LegendMM LegendMM   99.41     LegendNANA
19:00 -8.5 -14.5 62 0.0 LegendMM LegendMM   99.51     LegendNANA
20:00 -10.3 -17.8 54 0.0 LegendMM LegendMM   99.60     LegendNANA
21:00 -11.6 -18.1 58 0.0 LegendMM LegendMM   99.71     LegendNANA
22:00 -12.4 -19.9 53 0.0 LegendMM LegendMM   99.69     LegendNANA
23:00 -13.0 -20.7 53 0.0 LegendMM LegendMM   99.69     LegendNANA

Notes on Data Quality.

Legend

  • E = Estimated
  • M = Missing
  • NA = Not Available*
  • [empty] = Indicates an unobserved value
Date modified: